This demonstration page uses our WeatherBlox Daily Observations layout. Learn more.

Left ArrowRight Arrow

Hourly Observations for August 12, 2022

Temp ( °F °C ) Dew Point ( °F °C ) Humidity (%) Winds ( mph kmh ) Pressure ( in mb ) Visibility ( mi km ) Precip ( " mm )
12:53 am 00:53 Clear 69 20.6 57 13.9 65 65 S 9 15 30.10 1019 10 16 0.00 0.00
1:53 am 01:53 Clear 67 19.4 57 13.9 71 71 S 7 11 30.10 1019 10 16 0.00 0.00
2:53 am 02:53 Clear 67 19.4 57 13.9 71 71 S 7 11 30.09 1019 10 16 0.00 0.00
3:53 am 03:53 Clear 66 18.9 57 13.9 73 73 SSW 9 15 30.08 1019 10 16 0.00 0.00
4:53 am 04:53 Clear 64 17.8 57 13.9 78 78 S 6 9 30.08 1019 10 16 0.00 0.00
5:53 am 05:53 Clear 63 17.2 56 13.3 78 78 S 5 7 30.09 1019 10 16 0.00 0.00
6:53 am 06:53 Sunny 63 17.2 56 13.3 78 78 SSW 7 11 30.10 1019 10 16 0.00 0.00
7:53 am 07:53 Sunny 65 18.3 56 13.3 73 73 SW 6 9 30.09 1019 10 16 0.00 0.00
8:53 am 08:53 Sunny 70 21.1 57 13.9 63 63 SSW 9 15 30.09 1019 10 16 0.00 0.00
9:53 am 09:53 Sunny 76 24.4 58 14.4 54 54 SSW 9 15 30.08 1019 10 16 0.00 0.00
10:53 am 10:53 Sunny 81 27.2 58 14.4 45 45 SSW 13 20 30.08 1019 10 16 0.00 0.00
11:53 am 11:53 Sunny 84 28.9 60 15.6 45 45 SSW 12 19 30.07 1018 10 16 0.00 0.00
12:53 pm 12:53 Sunny 87 30.6 58 14.4 37 37 SSW 13 20 30.06 1018 10 16 0.00 0.00
1:53 pm 13:53 Sunny 90 32.2 59 15 35 35 SSW 9 15 30.04 1017 10 16 0.00 0.00
2:53 pm 14:53 Sunny 91 32.8 54 12.2 29 29 SSW 13 20 30.03 1017 10 16 0.00 0.00
3:53 pm 15:53 Sunny 93 33.9 53 11.7 26 26 SSW 14 22 30.01 1016 10 16 0.00 0.00
4:53 pm 16:53 Sunny 94 34.4 53 11.7 25 25 S 12 19 29.99 1016 10 16 0.00 0.00
5:53 pm 17:53 Sunny 93 33.9 56 13.3 29 29 S 10 17 29.97 1015 10 16 0.00 0.00
6:53 pm 18:53 Sunny 91 32.8 56 13.3 31 31 S 12 19 29.96 1015 10 16 0.00 0.00
7:53 pm 19:53 Sunny 86 30 56 13.3 36 36 S 7 11 29.97 1015 10 16 0.00 0.00
8:53 pm 20:53 Clear 83 28.3 56 13.3 40 40 SSE 9 15 29.96 1014 10 16 0.00 0.00
9:53 pm 21:53 Clear 81 27.2 53 11.7 38 38 SSE 10 17 29.96 1015 10 16 0.00 0.00
10:53 pm 22:53 Clear 76 24.4 54 12.2 47 47 S 8 13 29.96 1014 10 16 0.00 0.00
11:53 pm 23:53 Clear 77 25 53 11.7 43 43 S 9 15 29.95 1014 10 16 0.00 0.00

Powered by AerisWeather